Location: Centerville
(32.8776°N, 96.6203°W)
Time: 23:54:35
(UTC+00:00)

Cosmos 1980 - Visible Passes

Search period start: 18 October 2021 00:00
Search period end: 28 October 2021 00:00
Orbit: 840 x 846 km, 71.0° (Epoch: 18 October)

Date Brightness Start Highest point End Pass type
(mag) Time Alt. Az. Time Alt. Az. Time Alt. Az.
24 Oct 6.0 12:01:30 10° N 12:05:56 23° ENE 12:10:20 10° ESE visible
25 Oct 6.1 11:46:58 10° N 11:51:17 22° ENE 11:55:35 10° ESE visible
26 Oct 6.1 11:32:25 10° N 11:36:37 21° ENE 11:40:49 10° ESE visible
27 Oct 6.1 02:18:03 10° SSW 02:18:15 11° SSW 02:18:15 11° SSW visible
27 Oct 6.2 11:17:52 10° NNE 11:21:58 20° ENE 11:26:02 10° ESE visible
